Location: Preissac
(48.4072°N, 78.3618°W)
Time: 12:13:13
(UTC-04:00)

Envisat - Pass Details

Date: 29 August 2019
Orbit: 764 x 766 km, 98.1° (Epoch: 17 September)

Event Time Altitude Azimuth Distance (km) Brightness Sun altitude
Rises 20:41:24 0° 210° (SSW) 3,221 6.3 -7.1°
Reaches altitude 10° 20:44:28 10° 229° (SW) 2,300 5.8 -7.6°
Maximum altitude 20:47:49 18° 271° (W) 1,835 6.1 -8.1°
Drops below altitude 10° 20:51:11 10° 313° (NW) 2,311 6.9 -8.6°
Sets 20:54:17 0° 333° (NNW) 3,243 7.2 -9.1°
